Weather in Karshevo

Russia / Republic of Karelia     61°40′51″N   36°18′29″E
temp.,
°C
wind,
m/s
gust,
m/s
humid.,
%
clouds,
%
prec.,
mm/h
press.,
hPa
HPBL,
m
26 february, fri
fri2600:00−5s4895100 0.0 1005215
03:00−3sse3697100 0.0 1003158
06:00−2se3897100 0.9 999276
09:00−2ese3797100 3.6 995312
12:00−4e4796100 3.8 994355
15:00−5ene3695100 5.7 996414
18:00−6ne3695100 0.5 998379
21:00−10ne1294100 0.5 100122
27 february, sat
sat2700:00−11ene129387 0.0 100321
03:00−11ese119687 0.2 100521
06:00−10sse119696 0.3 100621
09:00−9s119693 0.6 100834
12:00−5w129585 0.3 1009199
15:00−1wnw259992 0.4 1012285
18:00−1nnw489292 0.1 1012516
21:00−2nnw389596 0.1 1015438
28 february, sun
sun2800:00−4nnw3793100 0.0 1015271
03:00−6nnw239792 0.0 101635
06:00−10nw12985 0.0 101521
09:00−8w119750 0.1 101521
12:00−4sw129498 0.0 1015229
15:00−4ssw249595 0.0 1016246
18:00−7s239781 0.0 101635
21:00−4sw369879 0.1 1018224
1 march, mon
mon100:00−2sw3797100 0.1 1018340
03:00−2wsw379798 0.2 1017260
06:00−1wsw4995100 0.0 1015490
09:00−2wsw4109599 0.0 1013449
12:00+1w61298100 0.1 1012762
15:00+1w61497100 0.2 1011665
18:00+1wnw613100100 0.1 1010580
21:00+1wnw4129898 0.2 1010619
2 march, tue
tue200:00+1wnw6139498 0.1 1009768
03:000wnw5138998 0.2 1009678
06:00−3wnw413915 0.0 1009452
09:00−2wnw5139011 0.0 1010605
12:000wnw5119028 0.0 1010793
15:00+1wnw5119135 0.0 1010890
18:00−1wnw4128984 0.0 1010611
21:00−1wnw4128990 0.1 1010674